Flag for USA Past Weather in Bryan – College Station, Texas, USA — Yesterday and Last 2 Weeks

Now
57 °F

Clear.


Feels Like: 54 °F
Forecast: 50 / 64 °F
Wind: 12 mph from West

Location: Easterwood Field

Current Time: Jan 22, 2017 at 4:28:06 am

Latest Report: Jan 22, 2017 at 3:53 am


Visibility: 10 mi

Pressure: 29.53 "Hg

Humidity: 44%

Dew Point: 35 °F

Location of Bryan – College StationLocation

Past Weather in Bryan – College Station — Graph

°F

Bryan – College Station Temperature Yesterday

Maximum temperature yesterday: 76 °F (at 3:53 pm)
Minimum temperature yesterday: 57 °F (at 11:53 pm)
Average temperature yesterday: 66 °F

High & Low Weather Summary for the Past Weeks

 TemperatureHumidityPressure
High81 °F (Jan 13, 1:53 pm)100% (Jan 15, 4:53 am)30.78 "Hg (Jan 15, 4:53 am)
Low17 °F (Jan 7, 6:53 am)19% (Jan 8, 12:53 pm)29.41 "Hg (Jan 21, 3:53 pm)
Average60 °F82%30.08 "Hg
* Reported Jan 7 2:53 am — Jan 22 2:53 am, Bryan – College Station, Weather by CustomWeather, © 2017

Note: Actual official high and low records may vary slightly from our data, if they occured in-between our weather recording intervals... More about our weather records

Advertising

Bryan – College Station Weather History for the Previous 24 Hours

Scroll right to see more
 ConditionsComfort  
Time TempWeatherWind HumidityBarometerVisibility
2:53 am
Sun, Jan 22
60 °FClear.16 mph42%29.52 "Hg10 mi
1:53 am60 °FPassing clouds.13 mph49%29.52 "Hg10 mi
12:53 am59 °FPartly cloudy.9 mph69%29.54 "Hg10 mi
11:53 pm
Sat, Jan 21
57 °FMostly cloudy.5 mph83%29.56 "Hg10 mi
10:53 pm59 °FLight rain. Mostly cloudy.No wind78%29.56 "Hg10 mi
9:53 pm64 °FLight rain. Overcast.20 mph54%29.59 "Hg8 mi
8:53 pm69 °FPassing clouds.10 mph41%29.50 "Hg10 mi
7:53 pm70 °FPassing clouds.13 mph42%29.48 "Hg10 mi
6:53 pm68 °FLight rain. Passing clouds.6 mph65%29.46 "Hg10 mi
5:53 pm73 °FPassing clouds.No wind55%29.43 "Hg10 mi
4:53 pm75 °FSunny.8 mph45%29.44 "Hg10 mi
3:53 pm76 °FSunny.9 mph45%29.41 "Hg10 mi
2:53 pm75 °FSunny.10 mph48%29.41 "Hg10 mi
1:53 pm73 °FSunny.10 mph59%29.44 "Hg10 mi
1:01 pm72 °FScattered clouds.14 mph64%29.48 "Hg10 mi
12:25 pm69 °FBroken clouds.13 mph73%29.52 "Hg10 mi
12:00 pm68 °FCloudy.13 mph78%29.54 "Hg10 mi
11:28 am68 °FBroken clouds.15 mph82%29.57 "Hg10 mi
10:53 am67 °FMostly cloudy.16 mph90%29.56 "Hg8 mi
10:30 am66 °FFog.14 mph96%29.58 "Hg5 mi
9:53 am64 °FFog.7 mph97%29.59 "Hg4 mi
8:53 am63 °FFog.7 mph100%29.59 "Hg4 mi
8:19 am63 °FFog.5 mph100%29.61 "Hg5 mi
7:53 am63 °FFog.10 mph100%29.59 "Hg4 mi
6:53 am63 °FFog.6 mph100%29.61 "Hg3 mi
6:05 am62 °FFog.7 mph100%29.62 "Hg2 mi
5:08 am62 °FFog.3 mph100%29.60 "Hg5 mi
4:39 am62 °FFog.5 mph96%29.60 "Hg3 mi
4:02 am61 °FFog.3 mph100%29.59 "Hg2 mi
Weather by CustomWeather, © 2017

See weather overviewHow to use our weather pages